Date String (YYYY-MM-DD hh:mm:ss) UTC,Instrument flags,Ambient pressure (hPa),Sample flow (lpm),Bypass flow (lpm),Sample temperature (°C),Ambient temperature (°C),ASC tube jacket temperature (°C),LED temperature (°C),Box temperature (°C),Sample RH (%),Span deviation,Mass concentration (μg/m³),Mass concentration (μg/m³),Mass concentration (μg/m³)
DateTimeUTC,F1_M11,P_M11,Q1_M11,Q2_M11,T1_M11,T2_M11,T3_M11,T4_M11,T5_M11,U1_M11,ZSPAN_M11,X0_M11,X2_M11,X1_M11
2022-01-23 03:00:00,,0831.6,4.99,0.00,23.3,22.6,00.0,32.5,25.1,11.4,0000.0,0006.95,0004.19,0003.91
2022-01-23 03:01:00,,0831.6,5.01,0.00,23.3,22.6,00.0,32.4,25.0,11.4,0000.0,0006.90,0004.17,0003.90
2022-01-23 03:02:00,,0831.5,5.00,0.00,23.3,22.6,00.0,32.4,25.0,11.4,0000.0,0006.97,0004.16,0003.89
2022-01-23 03:03:00,,0831.6,5.00,0.00,23.3,22.6,00.0,32.4,25.0,11.3,0000.0,0006.91,0004.13,0003.88
2022-01-23 03:04:00,,0831.6,5.01,0.00,23.3,22.6,00.0,32.4,25.0,11.3,0000.0,0006.92,0004.11,0003.87
2022-01-23 03:05:00,,0831.6,4.99,0.00,23.3,22.5,00.0,32.4,25.0,11.3,0000.0,0007.02,0004.10,0003.85
2022-01-23 03:06:00,,0831.6,5.00,0.00,23.3,22.5,00.0,32.4,25.0,11.3,0000.0,0006.63,0004.07,0003.84
2022-01-23 03:07:00,,0831.6,4.99,0.00,23.2,22.5,00.0,32.4,25.0,11.3,0000.0,0005.93,0004.03,0003.83
2022-01-23 03:08:00,,0831.6,5.00,0.00,23.2,22.5,00.0,32.4,24.9,11.2,0000.0,0005.67,0004.01,0003.81
2022-01-23 03:09:00,,0831.6,5.01,0.00,23.2,22.5,00.0,32.3,24.9,11.2,0000.0,0005.68,0003.97,0003.79
2022-01-23 03:10:00,,0831.6,4.98,0.00,23.2,22.5,00.0,32.3,24.9,11.2,0000.0,0005.60,0003.94,0003.78
2022-01-23 03:11:00,,0831.6,5.01,0.00,23.2,22.5,00.0,32.3,24.9,11.2,0000.0,0005.65,0003.93,0003.76
2022-01-23 03:12:00,,0831.6,4.99,0.00,23.2,22.5,00.0,32.3,24.9,11.2,0000.0,0005.58,0003.91,0003.75
2022-01-23 03:13:00,,0831.5,5.01,0.00,23.2,22.5,00.0,32.3,24.9,11.3,0000.0,0005.52,0003.91,0003.74
2022-01-23 03:14:00,,0831.5,4.98,0.00,23.2,22.5,00.0,32.3,24.9,11.3,0000.0,0005.51,0003.91,0003.74
2022-01-23 03:15:00,,0831.5,5.01,0.00,23.2,22.5,00.0,32.3,24.9,11.3,0000.0,0005.45,0003.90,0003.73
2022-01-23 03:16:00,,0831.5,4.98,0.00,23.1,22.4,00.0,32.3,24.9,11.3,0000.0,0005.30,0003.87,0003.72
2022-01-23 03:17:00,,0831.4,5.01,0.00,23.1,22.4,00.0,32.2,24.9,11.4,0000.0,0005.36,0003.87,0003.72
2022-01-23 03:18:00,,0831.4,4.98,0.00,23.1,22.4,00.0,32.2,24.9,11.4,0000.0,0005.46,0003.88,0003.72
2022-01-23 03:19:00,,0831.4,5.00,0.00,23.1,22.4,00.0,32.2,24.8,11.3,0000.0,0005.47,0003.91,0003.74
2022-01-23 03:20:00,,0831.4,5.00,0.00,23.1,22.4,00.0,32.2,24.8,11.4,0000.0,0005.36,0003.92,0003.74
2022-01-23 03:21:00,,0831.4,5.00,0.00,23.1,22.4,00.0,32.2,24.8,11.3,0000.0,0005.48,0003.95,0003.75
2022-01-23 03:22:00,,0831.3,5.02,0.00,23.1,22.3,00.0,32.2,24.8,11.3,0000.0,0005.63,0003.99,0003.76
2022-01-23 03:23:00,,0831.3,4.99,0.00,23.0,22.3,00.0,32.2,24.8,11.3,0000.0,0005.88,0004.02,0003.76
2022-01-23 03:24:00,,0831.4,5.00,0.00,23.0,22.3,00.0,32.2,24.8,11.4,0000.0,0005.91,0004.01,0003.77
2022-01-23 03:25:00,,0831.4,5.00,0.00,23.0,22.3,00.0,32.2,24.7,11.4,0000.0,0005.91,0004.00,0003.76
2022-01-23 03:26:00,,0831.4,4.99,0.00,23.0,22.3,00.0,32.1,24.7,11.3,0000.0,0005.85,0003.96,0003.73
2022-01-23 03:27:00,,0831.4,5.02,0.00,23.0,22.2,00.0,32.1,24.7,11.4,0000.0,0006.14,0003.95,0003.71
2022-01-23 03:28:00,,0831.4,4.99,0.00,23.0,22.2,00.0,32.1,24.7,11.4,0000.0,0006.26,0003.91,0003.68
2022-01-23 03:29:00,,0831.4,5.01,0.00,23.0,22.2,00.0,32.1,24.7,11.3,0000.0,0006.08,0003.86,0003.64
2022-01-23 03:30:00,,0831.3,5.00,0.00,23.0,22.2,00.0,32.1,24.7,11.3,0000.0,0005.91,0003.79,0003.60
2022-01-23 03:31:00,,0831.3,5.01,0.00,23.0,22.2,00.0,32.1,24.7,11.3,0000.0,0005.79,0003.74,0003.55
2022-01-23 03:32:00,,0831.2,4.99,0.00,22.9,22.2,00.0,32.1,24.7,11.3,0000.0,0005.67,0003.68,0003.51
2022-01-23 03:33:00,,0831.2,4.99,0.00,22.9,22.2,00.0,32.1,24.7,11.3,0000.0,0005.42,0003.62,0003.47
2022-01-23 03:34:00,,0831.2,5.01,0.00,22.9,22.2,00.0,32.1,24.7,11.2,0000.0,0005.04,0003.54,0003.42
2022-01-23 03:35:00,,0831.2,4.99,0.00,22.9,22.2,00.0,32.0,24.7,11.2,0000.0,0004.88,0003.50,0003.37
2022-01-23 03:36:00,,0831.2,5.02,0.00,22.9,22.2,00.0,32.0,24.6,11.2,0000.0,0005.01,0003.44,0003.33
2022-01-23 03:37:00,,0831.2,4.99,0.00,22.9,22.2,00.0,32.0,24.6,11.2,0000.0,0005.05,0003.41,0003.29
2022-01-23 03:38:00,,0831.2,5.00,0.00,22.9,22.2,00.0,32.0,24.7,11.1,0000.0,0004.62,0003.36,0003.25
2022-01-23 03:39:00,,0831.2,5.00,0.00,22.9,22.1,00.0,32.0,24.6,11.1,0000.0,0004.17,0003.31,0003.21
2022-01-23 03:40:00,,0831.2,5.02,0.00,22.9,22.1,00.0,32.0,24.6,11.1,0000.0,0004.09,0003.28,0003.18
2022-01-23 03:41:00,,0831.2,4.99,0.00,22.8,22.1,00.0,32.0,24.6,11.0,0000.0,0004.12,0003.26,0003.14
2022-01-23 03:42:00,,0831.2,4.99,0.00,22.8,22.1,00.0,32.0,24.6,11.0,0000.0,0004.06,0003.22,0003.11
2022-01-23 03:43:00,,0831.2,5.01,0.00,22.8,22.1,00.0,31.9,24.6,11.0,0000.0,0003.93,0003.17,0003.05
2022-01-23 03:44:00,,0831.2,5.01,0.00,22.8,22.1,00.0,31.9,24.6,11.0,0000.0,0003.86,0003.13,0002.99
2022-01-23 03:45:00,,0831.2,4.99,0.00,22.8,22.1,00.0,31.9,24.6,10.9,0000.0,0003.83,0003.10,0002.94
2022-01-23 03:46:00,,0831.2,5.01,0.00,22.8,22.1,00.0,31.9,24.6,10.8,0000.0,0003.83,0003.07,0002.90
2022-01-23 03:47:00,,0831.2,4.98,0.00,22.8,22.1,00.0,31.9,24.6,10.8,0000.0,0003.57,0003.03,0002.85
2022-01-23 03:48:00,,0831.1,5.00,0.00,22.8,22.1,00.0,31.9,24.5,10.7,0000.0,0003.34,0002.98,0002.80
2022-01-23 03:49:00,,0831.2,4.99,0.00,22.8,22.0,00.0,31.9,24.5,10.6,0000.0,0003.84,0002.94,0002.76
2022-01-23 03:50:00,,0831.2,5.01,0.00,22.8,22.0,00.0,31.9,24.5,10.7,0000.0,0004.69,0002.91,0002.72
2022-01-23 03:51:00,,0831.2,4.99,0.00,22.7,22.0,00.0,31.8,24.5,10.6,0000.0,0004.68,0002.87,0002.67
2022-01-23 03:52:00,,0831.2,5.02,0.00,22.7,22.0,00.0,31.8,24.5,10.6,0000.0,0004.62,0002.81,0002.63
2022-01-23 03:53:00,,0831.2,4.99,0.00,22.7,22.0,00.0,31.8,24.5,10.6,0000.0,0004.64,0002.76,0002.57
2022-01-23 03:54:00,,0831.2,5.02,0.00,22.7,22.0,00.0,31.8,24.5,10.6,0000.0,0004.61,0002.73,0002.54
2022-01-23 03:55:00,,0831.2,5.00,0.00,22.7,21.9,00.0,31.8,24.4,10.5,0000.0,0004.58,0002.67,0002.49
2022-01-23 03:56:00,,0831.2,4.99,0.00,22.7,21.9,00.0,31.8,24.4,10.5,0000.0,0004.60,0002.63,0002.44
2022-01-23 03:57:00,,0831.2,5.02,0.00,22.7,22.0,00.0,31.8,24.4,10.5,0000.0,0004.53,0002.57,0002.39
2022-01-23 03:58:00,,0831.2,4.99,0.00,22.7,21.9,00.0,31.8,24.4,10.5,0000.0,0004.47,0002.51,0002.34
2022-01-23 03:59:00,,0831.2,5.00,0.00,22.6,21.9,00.0,31.8,24.4,10.4,0000.0,0004.40,0002.45,0002.29
